Location: ??? ???
(33.4974°N, 35.4618°E)
Time: 12:34:10
(UTC+00:00)

Okean O Rocket - Pass Details

Date: 29 October 2020
Orbit: 623 x 644 km, 98.2° (Epoch: 26 November)

Event Time Altitude Azimuth Distance (km) Brightness Sun altitude
Rises 15:40:36 0° 184° (S) 2,909 5.2 -11.4°
Reaches altitude 10° 15:42:55 10° 193° (SSW) 2,002 4.5 -11.9°
Maximum altitude 15:46:57 38° 261° (W) 969 3.3 -12.7°
Drops below altitude 10° 15:51:01 10° 330° (NNW) 2,003 4.5 -13.5°
Sets 15:53:21 0° 338° (NNW) 2,911 5.2 -14.0°
